CW7164 Weather Reports


Display with metric or nautical units.
time (UTC)temp
F
wind
direction
speed
MPH
gust
MPH
rain 1hr
in
rain 24hr
in
rain mn
in
humidity
%
barometer
mb
20260506211043 56 303 2.0 9.0 0.00 0.00 0.00 37 1012.7
20260506210143 56 302 2.0 7.0 0.00 0.00 0.00 37 1012.8
20260506205243 58 272 2.0 9.0 0.00 0.00 0.00 35 1012.8
20260506204343 58 250 2.0 8.0 0.00 0.00 0.00 36 1012.8
20260506203443 58 270 2.0 10.0 0.00 0.00 0.00 35 1012.9
20260506201643 58 197 2.0 7.0 0.00 0.00 0.00 32 1013.1
20260506200743 58 210 2.0 7.0 0.00 0.00 0.00 34 1013.1
20260506195843 58 177 2.0 7.0 0.00 0.00 0.00 34 1013.2
20260506194943 58 246 2.0 8.0 0.00 0.00 0.00 35 1013.2
20260506194043 58 242 2.0 7.0 0.00 0.00 0.00 35 1013.2
20260506193143 58 203 2.0 9.0 0.00 0.00 0.00 33 1013.2
20260506192243 58 257 2.0 9.0 0.00 0.00 0.00 36 1013.2
20260506191343 56 332 1.0 8.0 0.00 0.00 0.00 37 1013.3
20260506185543 55 233 2.0 6.0 0.00 0.00 0.00 39 1013.4
20260506184643 56 193 2.0 5.0 0.00 0.00 0.00 38 1013.5
20260506183743 55 217 2.0 5.0 0.00 0.00 0.00 38 1013.4
20260506182843 55 196 2.0 8.0 0.00 0.00 0.00 38 1013.4
20260506181943 55 171 1.0 5.0 0.00 0.00 0.00 37 1013.5
20260506175243 55 258 1.0 5.0 0.00 0.00 0.00 41 1013.4
20260506174343 54 237 1.0 6.0 0.00 0.00 0.00 41 1013.6
20260506172543 55 195 2.0 7.0 0.00 0.00 0.00 38 1013.7
20260506170743 54 346 1.0 4.0 0.00 0.00 0.00 40 1013.7
20260506165843 54 310 2.0 7.0 0.00 0.00 0.00 41 1013.8
20260506164943 54 244 2.0 6.0 0.00 0.00 0.00 41 1013.8
20260506164043 54 255 1.0 4.0 0.00 0.00 0.00 41 1013.7
20260506162242 55 186 2.0 5.0 0.00 0.00 0.00 41 1013.5
20260506161343 54 293 2.0 5.0 0.00 0.00 0.00 41 1013.6
20260506160443 54 250 1.0 5.0 0.00 0.00 0.00 38 1013.6
20260506155542 54 296 1.0 6.0 0.00 0.00 0.00 40 1013.6
20260506154643 54 294 2.0 4.0 0.00 0.00 0.00 40 1013.7
20260506153743 54 21 1.0 4.0 0.00 0.00 0.00 42 1013.7
20260506152843 53 15 1.0 5.0 0.00 0.00 0.00 40 1013.7
20260506151042 53 289 1.0 7.0 0.00 0.00 0.00 37 1013.8
20260506150143 53 338 1.0 7.0 0.00 0.00 0.00 39 1013.8
20260506145243 53 251 1.0 3.0 0.00 0.00 0.00 39 1013.8
20260506143442 53 313 1.0 6.0 0.00 0.00 0.00 43 1013.9
20260506140743 52 342 0.0 3.0 0.00 0.00 0.00 43 1013.7
20260506135843 51 334 0.0 3.0 0.00 0.00 0.00 47 1013.8
20260506134943 50 358 0.0 2.0 0.00 0.00 0.00 50 1013.6
20260506133143 48 1 0.0 1.0 0.00 0.00 0.00 60 1013.1
20260506132242 47 1 0.0 1.0 0.00 0.00 0.00 60 1013.1
20260506131342 46 1 0.0 1.0 0.00 0.00 0.00 62 1013.0
20260506130443 46 1 0.0 1.0 0.00 0.00 0.00 65 1013.0
20260506124642 43 1 0.0 1.0 0.00 0.00 0.00 72 1012.8
20260506123742 43 0 0.0 0.0 0.00 0.00 0.00 73 1012.7
20260506122842 42 0 0.0 0.0 0.00 0.00 0.00 73 1012.5
20260506121942 42 0 0.0 0.0 0.00 0.00 0.00 74 1012.4
20260506121042 41 0 0.0 0.0 0.00 0.00 0.00 74 1012.3
20260506120142 41 0 0.0 0.0 0.00 0.00 0.00 74 1012.3
20260506115242 41 0 0.0 0.0 0.00 0.00 0.00 74 1012.3
20260506114342 40 0 0.0 0.0 0.00 0.00 0.00 74 1012.3
20260506113442 40 0 0.0 0.0 0.00 0.00 0.00 73 1012.1
20260506112542 40 0 0.0 0.0 0.00 0.00 0.00 73 1012.1
20260506110742 40 0 0.0 0.0 0.00 0.00 0.00 73 1011.9
20260506104940 40 0 0.0 0.0 0.00 0.00 0.00 71 1011.9
20260506103140 41 0 0.0 0.0 0.00 0.00 0.00 69 1011.4
20260506102240 41 0 0.0 0.0 0.00 0.00 0.00 68 1011.3
20260506101339 41 0 0.0 0.0 0.00 0.00 0.00 67 1011.1
20260506100440 42 0 0.0 0.0 0.00 0.00 0.00 67 1011.1
20260506095539 42 0 0.0 0.0 0.00 0.00 0.00 66 1011.1
20260506093739 43 0 0.0 0.0 0.00 0.00 0.00 65 1011.1
20260506092840 43 0 0.0 0.0 0.00 0.00 0.00 65 1011.1
20260506091940 43 0 0.0 0.0 0.00 0.00 0.00 65 1010.9
20260506090140 43 0 0.0 0.0 0.00 0.00 0.00 65 1011.1
20260506085240 43 0 0.0 0.0 0.00 0.00 0.00 64 1011.3
20260506083440 43 0 0.0 0.0 0.00 0.00 0.00 62 1010.9
20260506082540 44 0 0.0 0.0 0.00 0.00 0.00 61 1010.8
20260506081640 44 0 0.0 0.0 0.00 0.00 0.00 60 1010.8
20260506080740 44 0 0.0 0.0 0.00 0.00 0.00 59 1010.9
20260506073139 46 323 0.0 1.0 0.00 0.00 0.00 56 1010.6
20260506072239 46 318 0.0 2.0 0.00 0.00 0.00 54 1010.4
20260506071338 46 328 0.0 1.0 0.00 0.00 0.00 54 1010.4
20260506050739 50 351 0.0 2.0 0.00 0.00 0.00 47 1009.8
20260506044939 51 340 0.0 2.0 0.00 0.00 0.00 47 1009.8
20260506044039 51 306 0.0 3.0 0.00 0.00 0.00 47 1009.8
20260506043139 51 331 0.0 4.0 0.00 0.00 0.00 47 1009.9
20260506042239 51 327 1.0 2.0 0.00 0.00 0.00 48 1009.9
20260506041339 51 316 1.0 3.0 0.00 0.00 0.00 48 1010.1
20260506040439 51 311 1.0 3.0 0.00 0.00 0.00 48 1010.2
20260506035538 50 322 0.0 3.0 0.00 0.00 0.00 52 1010.1
20260506034639 51 0 0.0 0.0 0.00 0.00 0.00 56 1009.8
20260506033739 51 0 0.0 0.0 0.00 0.00 0.00 54 1009.8
20260506032839 51 297 0.0 1.0 0.00 0.00 0.00 54 1009.9
20260506031939 51 0 0.0 0.0 0.00 0.00 0.00 52 1009.6
20260506031039 51 0 0.0 0.0 0.00 0.00 0.00 51 1009.4
20260506030139 51 306 0.0 2.0 0.00 0.00 0.00 50 1009.4
20260506025239 51 327 0.0 1.0 0.00 0.00 0.00 51 1009.3
20260506024339 52 327 0.0 1.0 0.00 0.00 0.00 51 1009.3
20260506023439 52 323 0.0 1.0 0.00 0.00 0.00 50 1009.4
20260506022539 52 318 0.0 1.0 0.00 0.00 0.00 50 1009.5
20260506021639 52 318 0.0 1.0 0.00 0.00 0.00 49 1009.1
20260506020739 52 313 0.0 1.0 0.00 0.00 0.00 49 1009.2
20260506014940 52 310 0.0 1.0 0.00 0.00 0.00 48 1008.7
20260506014039 53 0 0.0 0.0 0.00 0.00 0.00 47 1008.6
20260506013138 53 306 0.0 1.0 0.00 0.00 0.00 45 1008.6
20260506011339 53 343 0.0 1.0 0.00 0.00 0.00 44 1008.4
20260506005539 54 9 0.0 2.0 0.00 0.00 0.00 42 1008.3
20260506004639 54 347 0.0 4.0 0.00 0.00 0.00 43 1008.1
20260506002839 54 316 0.0 3.0 0.00 0.01 0.00 41 1007.9
20260506000139 54 319 2.0 7.0 0.00 0.01 0.00 38 1007.9
20260505235239 54 326 2.0 8.0 0.00 0.01 0.00 38 1007.9
20260505234339 55 324 1.0 4.0 0.00 0.01 0.00 38 1008.0
20260505233439 55 320 2.0 6.0 0.00 0.01 0.00 38 1008.1
20260505232541 55 299 2.0 5.0 0.00 0.01 0.00 36 1008.1
20260505230739 56 310 1.0 3.0 0.00 0.01 0.00 39 1008.1
20260505224939 56 338 1.0 3.0 0.00 0.01 0.00 37 1008.2
20260505224038 56 312 2.0 6.0 0.00 0.01 0.00 36 1008.4
20260505223139 56 332 1.0 4.0 0.00 0.01 0.00 37 1008.4
20260505222239 56 359 1.0 4.0 0.00 0.01 0.00 37 1008.4
20260505221339 56 320 2.0 6.0 0.00 0.01 0.00 35 1008.3
20260505220439 56 307 1.0 4.0 0.00 0.01 0.00 35 1008.2
20260505215538 56 305 1.0 3.0 0.00 0.01 0.00 39 1008.6
20260505214638 56 332 1.0 6.0 0.00 0.01 0.00 35 1008.6
20260505213739 56 310 1.0 6.0 0.00 0.01 0.00 35 1008.6